HOT BIRD 4
1 25237U 98013A   03051.87002466  .00000081  00000-0  10000-3 0  3281
2 25237   0.0941 307.5522 0007523 323.6559 205.4369  1.00273901 18561
NOAA 15
1 25338U 98030A   03052.12734632  .00000232  00000-0  11916-3 0   123
2 25338  98.5499  74.2081 0009968 313.9964  46.0390 14.24246870248167
RESURS O1-N4
1 25394U 98043A   03052.23592652 25394  98.6307 130.1152 0002388  97.0630 263.0820 14.23879443239917
TMSAT
1 25396U 98043C   03051.92563611 -.00000043 +00000-0 +00000-0 0 08954
2 25396 098.6272 128.9888 0004012 121.7023 238.4551 14.23511378239869
TECHSAT 1B
1 25397U 98043D   03051.94836632 +.00000101 +00000-0 +63946-4 0 01592
2 25397 098.6221 127.8867 0002065 123.5244 236.6131 14.22960932239834
ASTRA 2A
1 25462U 98050A   03051.31926416  .00000000  00000-0  10000-3 0  5330
2 25462   0.0870 297.6948 0007001 278.8390  76.4419  1.00266022 16452
EUTELSAT W2
1 25491U 98056A   03046.86653737  .00000104  00000-0  00000+0 0  5795
2 25491   0.0149 115.2307 0003737 184.6991 173.4544  1.00271191 16023
HOT BIRD 5
1 25495U 98057A   03042.93716436  .00000165  00000-0  02 25495   0.0310 255.9940 0003377  65.4663 190.5501  1.00272693 15956
SEDSAT 1
1 25509U 98061B   03051.60944406  .00000815  00000-0  15126-3 0  7841
2 25509  31.4311 141.6443 0357954 320.5477  36.9584 14.27438864225607
PAN SAT
1 25520U 98064B   03051.66887401 +.00002576 +00000-0 +12839-3 0 06410
2 25520 028.4621 209.8743 0005318 013.2561 346.8047 15.13899796237908
ISS (ZARYA)
1 25544U 98067A   03052.52386138  .00018292  00000-0  23916-3 0  7136
2 25544  51.6333 241.1562 0012049 229.6160 160.6986 15.58619412242967
ORSTED
1 25635U 99008B   03052.50606148  .00001190  00000-0  30908-3 0  8372
2 25635  96.4509  38.0348 0144943 320.4218  38.6455 14.44853130210363
SUNSAT
1 25636U 99008C   03051.93619839 +.00000645 +00000-0 +17715-3 0 06946
2 25636 096.4530 036.2533 0148727 328UOSAT 12
1 25693U 99021A   03052.32732472  .00000473  00000-0  87549-4 0  7232
2 25693  64.5606   2.3423 0020853 316.2738  43.6673 14.76394670206662
FENGYUN 1C
1 25730U 99025A   03052.55895648 -.00000008  00000-0  18540-4 0  7722
2 25730  98.6334  76.8453 0014378 357.9246   2.1864 14.11734323195054
ASTRA 1H
1 25785U 99033A   03049.00000000  .00000116  00000-0  10000-3 0  3724
2 25785   0.0122 319.8851 0002995  65.1991 141.6651  1.00273184 13492
TERRA
1 25994U 99068A   03052.26549867  .00000592  00000-0  14133-3 0  7177
2 25994  98.1988 128.4480 0000959  83.8352 276.2989 14.57136604169065
JAWSAT
1 26061U 00004A   03052.22339648  .00000623  00000-0  22480-3 0  7703
2 26061 100.2077 109.7853 0034620 271.6896  88.0319 14.37830493160919
OPAL
1 26063U 00004C   03051.71597537  .00000188  00000-0 2 26063 100.2128 106.6864 0036821 281.2017  78.5023 14.35483018160699
ASUSAT
1 26065U 00004E   03051.88190447  .00000218  00000-0  95744-4 0  7388
2 26065 100.2107 107.0305 0036918 281.5453  78.1581 14.35510984160718
GOES 11
1 26352U 00022A   03052.33937249 -.00000040  00000-0  10000-3 0   329
2 26352   0.1460 103.5219 0003377 225.8224 190.1896  1.00265866 10264
EUTELSAT W4
1 26369U 00028A   03049.96195201  .00000150  00000-0  00000+0 0  3534
2 26369   0.0345 349.9386 0003063 332.0141 208.9102  1.00271808 10053
FENGYUN 2B
1 26382U 00032A   03051.63820326 -.00000336  00000-0  00000+0 0  7984
2 26382   0.5647 287.6903 0001379 220.1059 336.5554  1.00275377  9731
EUTELSAT W1
1 26487U 00052A   03049.87196976  .00000063  02 26487   0.0160 269.8498 0003911  57.9999 144.4206  1.00274574  9026
ASTRA 2B
1 26494U 00054A   03049.00000000  .00000146  00000-0  00000+0 0  2555
2 26494   0.0178 354.5658 0005000 302.8402 238.2911  1.00276704  8914
NOAA 16
1 26536U 00055A   03051.77871615  .00000267  00000-0  17025-3 0  2157
2 26536  98.9037   0.0455 0009962 303.1718  56.8495 14.11905750124460
SAUDISAT 1A
1 26545U 00057A   03051.77715620 +.00001115 +00000-0 +16659-3 0 04160
2 26545 064.5589 025.1342 0051978 238.4525 121.1513 14.78991456129557
UNISAT
1 26547U 00057C   03051.76240138 +.00001977 +00000-0 +27358-3 0 04353
2 26547 064.5574 027.4044 0059145 240.5553 118.9648 14.79764257129513
TIUNGSAT 1
1 26548U 00057D   03052.26885278  .00001290  00000-0  18081-3 0  4182
2 26548  64.5589  16.4823 0045119 237.8SAUDISAT 1B
1 26549U 00057E   03052.01782115  .00001244  00000-0  18747-3 0  6979
2 26549  64.5519  28.5210 0056465 238.4346 121.1233 14.77929937129500
AMSAT OSCAR 40
1 26609U 00072B   03050.21683058 -.00000170 +00000-0 +10000-3 0 03125
2 26609 008.1020 063.9362 7942557 145.4197 310.7583 01.25596576010593
GOES 12
1 26871U 01031A   03051.09257291 -.00000175  00000-0  10000-3 0  8282
2 26871   0.3209 276.7891 0003286   8.9667 163.1959  1.00361312  5854
PCSAT
1 26931U 01043C   03052.53452251  .00000222  00000-0  11979-3 0  4076
2 26931  67.0471 247.9794 0005001 267.4685  92.5842 14.29117826 72778
SAPPHIRE
1 26932U 01043D   03051.95239549 +.00000146 +00000-0 +89850-4 0 04074
2 26932 067.0539 249.1824 0004779 241.1937 118.8684 14.29296023072719
ENVISAT
1 27386U 02009A   03051.71073413 -.02 27386 098.5440 120.2233 0001077 109.0530 251.0815 14.32244786051058
IDEFIX/ARIANE 42P
1 27422U 02021B   03052.54533279  .00000251  00000-0  11899-3 0  2385
2 27422  98.6943 131.7333 0013167 138.5260 221.6923 14.27972374 41884
FENGYUN 1D
1 27431U 02024B   03052.50575447 -.00000005  00000-0  21586-4 0  2201
2 27431  98.7693 101.4089 0016165 114.8743 245.4109 14.09179167 39788
NOAA 17
1 27453U 02032A   03052.09638756  .00000301  00000-0  15253-3 0  3113
2 27453  98.7555 123.2942 0011660 353.8722   6.2312 14.23295910 34321
HOT BIRD 6
1 27499U 02038A   03051.87535221  .00000080  00000-0  10000-3 0   696
2 27499   0.0841 289.4691 0009015  81.8198 107.1356  1.00273966  1856
